Location: Mountain Grove
(34.0887°N, 86.6172°W)
Time: 15:06:59
(UTC+00:00)

Cosmos 1833 Rocket - Pass Details

Date: 14 July 2020
Orbit: 832 x 840 km, 71.0° (Epoch: 12 August)

Event Time Altitude Azimuth Distance (km) Brightness Sun altitude
Exits shadow 07:31:39 73° 8° (N) 870 2.7 -29.5°
Drops below altitude 10° 07:36:43 10° 20° (NNE) 2,446 6.0 -29.0°
Sets 07:39:10 0° 21° (NNE) 3,384 7.1 -28.8°
